Back to catalog

COSMOS 2251 DEB

AliveLEO
NORAD 36379·DEBRIS·🇷🇺 Russia

Launched Jun 16, 1993 from Plesetsk Cosmodrome

Loading…

Next Passes (next 24 hours)

TLE

AgingSource: Space-Track

Epoch: Sep 10, 2026, 11:09 UTC

1 36379U 93036AZG 26253.46468927  .00000364  00000-0  13169-3 0  9999
2 36379  74.0129 167.0157 0047272 232.3854 247.2500 14.36445902687299

Track COSMOS 2251 DEB in real time with AllMySat

Download on the App Store